| time (UTC) | temp C | wind direction | speed KPH | gust KPH | rain 1hr cm | rain 24hr cm | rain mn cm | humidity % | barometer mb |
| 20260903215834 | 14 | 235 | 0.0 | 8.0 | 0.00 | 0.00 | 0.00 | 78 | 1024.6 |
| 20260903212824 | 13 | 223 | 8.0 | 11.3 | 0.00 | 0.00 | 0.00 | 94 | 1024.7 |
| 20260903205827 | 7 | 93 | 0.0 | 1.6 | 0.00 | 0.00 | 0.00 | 93 | 1025.0 |
| 20260903204320 | 5 | 84 | 0.0 | 0.0 | 0.00 | 0.00 | 0.00 | 94 | 1025.1 |
| 20260903201322 | 3 | 84 | 0.0 | 0.0 | 0.00 | 0.00 | 0.00 | 92 | 1024.9 |
| 20260903195822 | 3 | 84 | 0.0 | 0.0 | 0.00 | 0.00 | 0.00 | 90 | 1024.9 |
| 20260903192824 | 5 | 84 | 0.0 | 0.0 | 0.00 | 0.00 | 0.00 | 87 | 1024.6 |
| 20260903191318 | 6 | 84 | 0.0 | 0.0 | 0.00 | 0.00 | 0.00 | 86 | 1024.6 |
| 20260903185816 | 6 | 84 | 0.0 | 0.0 | 0.00 | 0.00 | 0.00 | 85 | 1024.3 |
| 20260903182817 | 8 | 84 | 0.0 | 0.0 | 0.00 | 0.00 | 0.00 | 83 | 1023.7 |
| 20260903175829 | 11 | 84 | 0.0 | 0.0 | 0.00 | 0.00 | 0.00 | 82 | 1023.4 |
| 20260903174325 | 12 | 84 | 0.0 | 0.0 | 0.00 | 0.00 | 0.00 | 83 | 1023.2 |
| 20260903172820 | 13 | 84 | 0.0 | 0.0 | 0.00 | 0.00 | 0.00 | 86 | 1023.1 |
| 20260903164321 | 15 | 84 | 0.0 | 6.4 | 0.00 | 0.00 | 0.00 | 86 | 1022.8 |
| 20260903161326 | 16 | 60 | 0.0 | 3.2 | 0.00 | 0.00 | 0.00 | 83 | 1023.0 |
| 20260903155820 | 16 | 63 | 1.6 | 8.0 | 0.00 | 0.00 | 0.00 | 84 | 1022.7 |
| 20260903154313 | 16 | 84 | 3.2 | 8.0 | 0.00 | 0.00 | 0.00 | 85 | 1022.5 |
| 20260903151325 | 16 | 30 | 1.6 | 11.3 | 0.00 | 0.00 | 0.00 | 81 | 1022.6 |
| 20260903145814 | 17 | 72 | 1.6 | 9.7 | 0.00 | 0.00 | 0.00 | 81 | 1022.7 |
| 20260903142818 | 18 | 111 | 3.2 | 14.5 | 0.00 | 0.00 | 0.00 | 77 | 1022.7 |
| 20260903135826 | 17 | 53 | 1.6 | 11.3 | 0.00 | 0.00 | 0.00 | 80 | 1023.2 |
| 20260903134319 | 17 | 59 | 3.2 | 12.9 | 0.00 | 0.00 | 0.00 | 79 | 1023.4 |
| 20260903131324 | 18 | 344 | 3.2 | 14.5 | 0.00 | 0.00 | 0.00 | 78 | 1023.4 |
| 20260903125813 | 18 | 120 | 4.8 | 17.7 | 0.00 | 0.00 | 0.00 | 77 | 1023.2 |
| 20260903122818 | 17 | 65 | 6.4 | 12.9 | 0.00 | 0.00 | 0.00 | 81 | 1023.2 |
| 20260903115822 | 17 | 351 | 4.8 | 16.1 | 0.00 | 0.00 | 0.00 | 76 | 1023.6 |
| 20260903112825 | 17 | 9 | 0.0 | 6.4 | 0.00 | 0.00 | 0.00 | 78 | 1023.9 |
| 20260903105826 | 18 | 5 | 3.2 | 14.5 | 0.00 | 0.00 | 0.00 | 76 | 1024.3 |
| 20260903104320 | 17 | 51 | 0.0 | 9.7 | 0.00 | 0.00 | 0.00 | 75 | 1024.5 |
| 20260903101319 | 16 | 113 | 0.0 | 11.3 | 0.00 | 0.00 | 0.00 | 76 | 1024.4 |
| 20260903094325 | 16 | 272 | 0.0 | 3.2 | 0.00 | 0.00 | 0.00 | 78 | 1024.9 |
| 20260903092819 | 16 | 186 | 0.0 | 3.2 | 0.00 | 0.00 | 0.00 | 78 | 1024.7 |
| 20260903085825 | 17 | 346 | 0.0 | 1.6 | 0.00 | 0.00 | 0.00 | 71 | 1025.0 |
| 20260903082827 | 17 | 315 | 0.0 | 9.7 | 0.00 | 0.00 | 0.00 | 53 | 1024.8 |
| 20260903081324 | 17 | 112 | 1.6 | 8.0 | 0.00 | 0.00 | 0.00 | 51 | 1025.0 |
| 20260903075815 | 17 | 116 | 3.2 | 8.0 | 0.00 | 0.00 | 0.00 | 52 | 1024.7 |
| 20260903072819 | 16 | 129 | 3.2 | 14.5 | 0.00 | 0.00 | 0.00 | 54 | 1025.0 |
| 20260903065827 | 15 | 135 | 4.8 | 14.5 | 0.00 | 0.00 | 0.00 | 58 | 1025.0 |
| 20260903064317 | 15 | 155 | 0.0 | 9.7 | 0.00 | 0.00 | 0.00 | 61 | 1024.9 |
| 20260903061317 | 13 | 215 | 1.6 | 9.7 | 0.00 | 0.00 | 0.00 | 64 | 1025.0 |
| 20260903055811 | 12 | 121 | 0.0 | 6.4 | 0.00 | 0.00 | 0.00 | 70 | 1025.0 |
| 20260903052818 | 13 | 251 | 1.6 | 9.7 | 0.00 | 0.00 | 0.00 | 68 | 1024.7 |
| 20260903051310 | 13 | 233 | 1.6 | 11.3 | 0.00 | 0.00 | 0.00 | 68 | 1024.7 |
| 20260903044318 | 12 | 191 | 3.2 | 12.9 | 0.00 | 0.00 | 0.00 | 88 | 1024.8 |
| 20260903041326 | 12 | 194 | 4.8 | 11.3 | 0.00 | 0.00 | 0.00 | 76 | 1024.7 |
| 20260903035819 | 12 | 236 | 3.2 | 17.7 | 0.00 | 0.00 | 0.00 | 82 | 1025.0 |
| 20260903034311 | 12 | 213 | 3.2 | 12.9 | 0.00 | 0.00 | 0.00 | 82 | 1025.1 |
| 20260903031326 | 11 | 162 | 3.2 | 9.7 | 0.00 | 0.00 | 0.00 | 93 | 1025.4 |
| 20260903025815 | 11 | 238 | 3.2 | 11.3 | 0.00 | 0.00 | 0.00 | 93 | 1025.7 |
| 20260903022822 | 9 | 252 | 4.8 | 11.3 | 0.00 | 0.00 | 0.00 | 93 | 1026.0 |
| 20260903021321 | 1 | 234 | 0.0 | 0.0 | 0.00 | 0.00 | 0.00 | 90 | 1026.0 |
| 20260903015814 | 1 | 234 | 0.0 | 0.0 | 0.00 | 0.00 | 0.00 | 88 | 1025.9 |
| 20260903012818 | 3 | 234 | 0.0 | 0.0 | 0.00 | 0.00 | 0.00 | 85 | 1026.4 |
| 20260903011309 | 4 | 234 | 0.0 | 0.0 | 0.00 | 0.00 | 0.00 | 84 | 1026.2 |
| 20260903004321 | 7 | 234 | 0.0 | 0.0 | 0.00 | 0.00 | 0.00 | 81 | 1026.0 |
| 20260903001310 | 11 | 234 | 0.0 | 0.0 | 0.00 | 0.00 | 0.00 | 86 | 1025.9 |
| 20260902234324 | 12 | 214 | 0.0 | 8.0 | 0.00 | 0.00 | 0.00 | 95 | 1026.4 |
| 20260902231327 | 11 | 221 | 3.2 | 11.3 | 0.00 | 0.00 | 0.00 | 93 | 1026.8 |
| 20260902225816 | 8 | 236 | 0.0 | 3.2 | 0.00 | 0.00 | 0.00 | 93 | 1027.0 |
| 20260902222826 | 7 | 212 | 1.6 | 9.7 | 0.00 | 0.00 | 0.00 | 94 | 1027.4 |